• In Latvia
  • List of Countries
  • For 7 days
  • Water Temperature
  • Satellite Maps
  • Weather Map
  • Weather Widgets
  • user-avatar
    Login

    Hourly Weather University Park

    Today, 15 August, Wednesday

    Time Temperature Precipitation Wind Pressure Humidity
    00:00 +30°C° 0 mm 5 mps 745 mmHg 66%
    01:00 +29°C° 0 mm 5 mps 745 mmHg 69%
    02:00 +29°C° 0 mm 6 mps 745 mmHg 72%
    03:00 +28°C° 0 mm 6 mps 745 mmHg 75%
    04:00 +28°C° 0 mm 5 mps 746 mmHg 77%
    05:00 +27°C° 0 mm 5 mps 746 mmHg 78%
    06:00 +27°C° 0 mm 5 mps 746 mmHg 80%
    07:00 +28°C° 0 mm 5 mps 746 mmHg 77%
    08:00 +29°C° 0 mm 5 mps 747 mmHg 74%
    09:00 +30°C° 0 mm 5 mps 747 mmHg 71%
    10:00 +32°C° 0 mm 5 mps 747 mmHg 66%
    11:00 +34°C° 0 mm 5 mps 747 mmHg 62%
    12:00 +35°C° 0 mm 5 mps 747 mmHg 57%
    13:00 +36°C° 0 mm 5 mps 746 mmHg 53%
    14:00 +37°C° 0 mm 5 mps 746 mmHg 50%
    15:00 +39°C° 0 mm 5 mps 745 mmHg 46%
    16:00 +37°C° 0 mm 5 mps 745 mmHg 48%
    17:00 +37°C° 0 mm 4 mps 745 mmHg 49%
    18:00 +37°C° 0 mm 4 mps 745 mmHg 50%
    19:00 +35°C° 0 mm 4 mps 745 mmHg 52%
    20:00 +34°C° 0 mm 4 mps 745 mmHg 55%
    21:00 +33°C° 0 mm 4 mps 745 mmHg 57%
    22:00 +33°C° 0 mm 5 mps 746 mmHg 59%
    23:00 +32°C° 0 mm 5 mps 746 mmHg 61%

    Tomorrow, 16 August, Thursday

    Time Temperature Precipitation Wind Pressure Humidity
    00:00 +32°C° 0 mm 5 mps 746 mmHg 63%
    01:00 +30°C° 0 mm 5 mps 746 mmHg 66%
    02:00 +30°C° 0 mm 5 mps 746 mmHg 69%
    03:00 +30°C° 0 mm 5 mps 747 mmHg 72%
    04:00 +29°C° 0 mm 5 mps 747 mmHg 74%
    05:00 +29°C° 0 mm 4 mps 747 mmHg 76%
    06:00 +28°C° 0 mm 4 mps 747 mmHg 78%
    07:00 +30°C° 0 mm 4 mps 748 mmHg 74%
    08:00 +32°C° 0 mm 4 mps 748 mmHg 70%
    09:00 +33°C° 0 mm 4 mps 748 mmHg 67%
    10:00 +34°C° 0 mm 4 mps 748 mmHg 61%
    11:00 +36°C° 0 mm 4 mps 748 mmHg 55%
    12:00 +37°C° 0 mm 4 mps 748 mmHg 49%
    13:00 +38°C° 0 mm 4 mps 748 mmHg 47%
    14:00 +38°C° 0 mm 4 mps 747 mmHg 44%
    15:00 +40°C° 0 mm 4 mps 747 mmHg 42%
    16:00 +38°C° 0 mm 3 mps 747 mmHg 44%
    17:00 +38°C° 0 mm 3 mps 747 mmHg 45%
    18:00 +37°C° 0 mm 3 mps 746 mmHg 47%
    19:00 +36°C° 0 mm 3 mps 747 mmHg 49%
    20:00 +35°C° 0 mm 3 mps 747 mmHg 51%
    21:00 +34°C° 0 mm 4 mps 747 mmHg 53%
    22:00 +33°C° 0 mm 4 mps 748 mmHg 55%
    23:00 +33°C° 0 mm 4 mps 748 mmHg 56%

    Day after tomorrow, 17 August, Friday

    Time Temperature Precipitation Wind Pressure Humidity
    00:00 +32°C° 0 mm 4 mps 748 mmHg 58%
    01:00 +32°C° 0 mm 4 mps 748 mmHg 61%
    02:00 +32°C° 0 mm 5 mps 748 mmHg 63%
    03:00 +30°C° 0 mm 5 mps 748 mmHg 65%
    04:00 +30°C° 0.1 mm 4 mps 748 mmHg 68%
    05:00 +29°C° 0.1 mm 4 mps 748 mmHg 71%
    06:00 +29°C° 0.1 mm 4 mps 748 mmHg 73%
    07:00 +30°C° 0 mm 4 mps 749 mmHg 70%
    08:00 +32°C° 0 mm 4 mps 749 mmHg 66%
    09:00 +33°C° 0 mm 5 mps 749 mmHg 62%
    10:00 +35°C° 0 mm 5 mps 749 mmHg 56%
    11:00 +36°C° 0 mm 5 mps 749 mmHg 50%
    12:00 +39°C° 0 mm 5 mps 749 mmHg 44%
    13:00 +39°C° 0 mm 5 mps 748 mmHg 42%
    14:00 +40°C° 0 mm 4 mps 748 mmHg 40%
    15:00 +41°C° 0 mm 4 mps 747 mmHg 37%
    16:00 +40°C° 0 mm 4 mps 747 mmHg 39%
    17:00 +39°C° 0 mm 3 mps 747 mmHg 41%
    18:00 +38°C° 0 mm 3 mps 746 mmHg 43%
    19:00 +37°C° 0.1 mm 3 mps 747 mmHg 45%
    20:00 +36°C° 0.1 mm 4 mps 747 mmHg 47%
    21:00 +34°C° 0.1 mm 4 mps 747 mmHg 49%
    22:00 +34°C° 0 mm 4 mps 747 mmHg 50%
    23:00 +33°C° 0 mm 5 mps 747 mmHg 52%

    18 August, Saturday

    Time Temperature Precipitation Wind Pressure Humidity
    00:00 +33°C° 0 mm 5 mps 747 mmHg 53%
    01:00 +32°C° 0 mm 5 mps 747 mmHg 56%
    02:00 +32°C° 0 mm 5 mps 747 mmHg 59%
    03:00 +30°C° 0 mm 5 mps 747 mmHg 62%
    04:00 +30°C° 0 mm 4 mps 747 mmHg 64%
    05:00 +30°C° 0 mm 4 mps 747 mmHg 67%
    06:00 +29°C° 0 mm 4 mps 747 mmHg 69%
    07:00 +30°C° 0 mm 4 mps 747 mmHg 66%
    08:00 +33°C° 0 mm 5 mps 747 mmHg 62%
    09:00 +34°C° 0 mm 5 mps 747 mmHg 59%
    10:00 +35°C° 0 mm 5 mps 747 mmHg 53%
    11:00 +37°C° 0 mm 4 mps 747 mmHg 47%
    12:00 +40°C° 0 mm 4 mps 746 mmHg 41%
    13:00 +40°C° 0 mm 4 mps 746 mmHg 38%
    14:00 +40°C° 0 mm 3 mps 745 mmHg 36%
    15:00 +42°C° 0 mm 3 mps 744 mmHg 34%
    16:00 +40°C° 0 mm 3 mps 744 mmHg 36%
    17:00 +39°C° 0 mm 3 mps 744 mmHg 39%
    18:00 +39°C° 0 mm 3 mps 744 mmHg 41%
    19:00 +37°C° 0 mm 4 mps 744 mmHg 43%
    20:00 +36°C° 0 mm 4 mps 744 mmHg 46%
    21:00 +35°C° 0 mm 5 mps 744 mmHg 48%
    22:00 +34°C° 0 mm 5 mps 744 mmHg 49%
    23:00 +34°C° 0 mm 4 mps 744 mmHg 50%

    19 August, Sunday

    Time Temperature Precipitation Wind Pressure Humidity
    00:00 +33°C° 0 mm 4 mps 743 mmHg 50%
    01:00 +33°C° 0 mm 5 mps 743 mmHg 53%
    02:00 +32°C° 0 mm 5 mps 743 mmHg 55%
    03:00 +32°C° 0 mm 5 mps 743 mmHg 58%
    04:00 +30°C° 0 mm 5 mps 743 mmHg 61%
    05:00 +30°C° 0 mm 4 mps 744 mmHg 64%
    06:00 +29°C° 0 mm 4 mps 744 mmHg 67%
    07:00 +30°C° 0 mm 4 mps 744 mmHg 65%
    08:00 +32°C° 0 mm 5 mps 744 mmHg 63%
    09:00 +33°C° 0 mm 5 mps 745 mmHg 60%
    10:00 +35°C° 0 mm 5 mps 744 mmHg 55%
    11:00 +38°C° 0 mm 6 mps 744 mmHg 49%
    12:00 +39°C° 0 mm 6 mps 744 mmHg 44%
    13:00 +40°C° 0 mm 6 mps 743 mmHg 41%
    14:00 +41°C° 0 mm 5 mps 743 mmHg 38%
    15:00 +41°C° 0 mm 5 mps 742 mmHg 35%
    16:00 +41°C° 0 mm 5 mps 742 mmHg 37%
    17:00 +40°C° 0 mm 5 mps 742 mmHg 39%
    18:00 +39°C° 0 mm 5 mps 742 mmHg 41%
    19:00 +37°C° 0 mm 5 mps 743 mmHg 43%
    20:00 +36°C° 0 mm 5 mps 743 mmHg 46%
    21:00 +35°C° 0 mm 6 mps 743 mmHg 48%
    22:00 +35°C° 0 mm 6 mps 743 mmHg 51%
    23:00 +34°C° 0 mm 7 mps 743 mmHg 55%

    20 August, Monday

    Time Temperature Precipitation Wind Pressure Humidity
    00:00 +33°C° 0 mm 7 mps 743 mmHg 58%
    01:00 +33°C° 0 mm 7 mps 743 mmHg 59%
    02:00 +32°C° 0 mm 6 mps 743 mmHg 61%
    03:00 +32°C° 0 mm 6 mps 743 mmHg 62%
    04:00 +30°C° 0.2 mm 5 mps 744 mmHg 64%
    05:00 +30°C° 0.2 mm 4 mps 745 mmHg 66%
    06:00 +30°C° 0.2 mm 4 mps 745 mmHg 67%
    07:00 +30°C° 0.6 mm 4 mps 746 mmHg 68%
    08:00 +30°C° 0.6 mm 4 mps 746 mmHg 68%
    09:00 +32°C° 0.6 mm 4 mps 746 mmHg 69%
    10:00 +33°C° 0 mm 4 mps 746 mmHg 63%
    11:00 +35°C° 0 mm 4 mps 746 mmHg 56%
    12:00 +36°C° 0 mm 4 mps 746 mmHg 50%
    13:00 +37°C° 0 mm 4 mps 746 mmHg 48%
    14:00 +37°C° 0 mm 4 mps 746 mmHg 45%
    15:00 +37°C° 0 mm 4 mps 745 mmHg 43%
    16:00 +37°C° 0 mm 4 mps 745 mmHg 42%
    17:00 +36°C° 0 mm 4 mps 746 mmHg 42%
    18:00 +36°C° 0 mm 4 mps 746 mmHg 42%
    19:00 +34°C° 0 mm 4 mps 746 mmHg 44%
    20:00 +33°C° 0 mm 3 mps 747 mmHg 47%
    21:00 +31°C° 0 mm 3 mps 747 mmHg 50%
    22:00 +30°C° 0 mm 4 mps 748 mmHg 54%
    23:00 +29°C° 0 mm 4 mps 748 mmHg 58%
    Show more